User: anonymous   Login
Location: Brabourne
(51.1333°N, 1.0000°E)
Time: 23:54:13
(UTC+00:00)
Language:

Cosmos 2369 Rocket - Orbit

View from above orbital plane
View from above orbital plane
View from above satellite
View from above satellite

Ground track
Ground track

The orbit data is extracted from the following two-line orbital elements,

1 26070U 00006B   21271.42015106 -.00000223  00000-0 -89881-4 0  9990
2 26070  71.0000 269.8671 0014883 138.6283 221.5970 14.15469367118832
Epoch (UTC): 28 September 2021 10:05:01
Eccentricity: 0.0014883
inclination: 71.0000°
perigee height: 830 km
apogee height: 851 km
right ascension of ascending node: 269.8671°
argument of perigee: 138.6283°
revolutions per day: 14.15469367
mean anomaly at epoch: 221.5970°
orbit number at epoch: 11883

The dashed part of the orbit path shows where the satellite is in the earth's shadow,  

DLR